Regional Weather Roundup
Issued by NWS Wakefield, VA

Home | Current Version | Previous Version | Graphics & Text | Print | Product List | Glossary On
Versions: 1 2 3 4 5 6 7 8 9 10 11 12 13 14 15 16 17 18 19 20 21 22 23 24 25 26 27 28 29 30 31 32 33 34 35 36 37 38 39 40 41 42 43 44 45 46 47 48 49 50
269
ASUS41 KAKQ 261114
RWRAKQ

REGIONAL WEATHER ROUNDUP
NATIONAL WEATHER SERVICE WAKEFIELD VA
600 AM EST SUN FEB 26 2017

Note: "fair" indicates few or no clouds below 12,000 feet with no
significant weather and/or obstructions to visibility. * = Denotes
station may not report precipitation (e.g., rain,snow,etc.),
thunder or fog.

VAZ042-051-052>054-056-261200-
NORTHERN VIRGINIA

CITY           SKY/WX    TMP DP  RH WIND       PRES   REMARKS
WASH NATIONAL  PTCLDY    37  17  44 W17G28    30.04R
DULLES         MOCLDY    34  15  46 NW15      30.03R WCI  24
FORT BELVOIR   CLEAR     34  16  47 NW7       30.04R
QUANTICO       CLEAR     36  17  46 N12G22    30.06R
FREDERICKSBRG* CLEAR     35  22  58 NW7       30.04R
STAFFORD*      CLEAR     32  20  61 CALM      30.08R
WARRENTON      CLEAR     32  15  48 N7        30.04R
CULPEPER*      CLEAR     32  19  58 CALM      30.06R
MANASSAS*      CLEAR     32  16  51 NW9       30.05R
LEESBURG*      CLOUDY    34  21  60 MISG      30.04R
WINCHESTER     CLOUDY    32  14  47 NW15G21   30.03R WCI  22
FRONT ROYAL*   MOSUNNY   32  16  51 W12       30.02R WCI  23
LURAY*         CLOUDY    32  21  64 W3        30.03R
$$

VAZ048-049-060>072-079>083-261200-
CENTRAL AND SOUTH CENTRAL VIRGINIA

CITY           SKY/WX    TMP DP  RH WIND       PRES   REMARKS
RICHMOND       CLEAR     37  23  56 NW7       30.03R
CHESTERFIELD*  FAIR      34  10  37 W6        30.05R
PETERSBURG*    CLEAR     35  22  58 W6        30.04R
HANOVER        CLEAR     36  20  52 CALM      30.05R
TAPPAHANNOCK*  CLEAR     37  12  35 NW7       30.02R
QUINTON*       FAIR      36  24  60 CALM      30.02R
CHARLOTTSVILLE CLEAR     34  17  50 VRB3      30.03R
GORDONSVILLE*  SUNNY     32  20  61 CALM      30.03R
ORANGE*        CLEAR     34  18  51 W9        30.05R
LOUISA*        CLEAR     37  21  52 NW5       30.02R
BUMPASS*       NOT AVBL
FARMVILLE*     CLEAR     32  25  74 CALM      30.04R
CREWE*         FAIR      35  23  61 W5        30.04R
FORT PICKETT*  NOT AVBL
CHASE CITY*    NOT AVBL
CLARKSVILLE*   FAIR      34  21  60 W6        30.06R
SOUTH HILL*    CLEAR     35  22  60 W6        30.11R
LAWRENCEVILLE* FAIR      35  23  60 NW3       30.04R
EMPORIA*       CLEAR     36  23  60 CALM      30.06R
$$

VAZ088>098-261200-
SOUTHEAST VIRGINIA

CITY           SKY/WX    TMP DP  RH WIND       PRES   REMARKS
NORFOLK        CLEAR     44  27  51 NW7       30.00R
VIRGINIA BEACH CLEAR     42  27  55 N13       29.99R
NORFOLK NAVAL  CLEAR     43  25  49 NW15      30.02R
WEST POINT*    CLEAR     37  24  58 NW5       30.04R
SALUDA*        FAIR      39  26  59 NW12      30.00R
NEWPORT NEWS   CLEAR     40  24  53 NW3       30.01R
LANGLEY AFB    CLEAR     40  24  53 NW5       30.01R
FORT EUSTIS    CLEAR     41  23  48 NW12      29.99R
WILLIAMSBURG*  CLEAR     39  27  60 CALM      30.03R
HR EXEC AP*    FAIR      41  25  52 N3        30.00R
FRANKLIN*      CLEAR     38  24  57 W8        30.04R
US460-WAKEFLD  CLEAR     36  25  64 CALM      30.03R
$$

VAZ020-022-025-037-045-261200-
WEST CENTRAL AND SOUTHWEST VIRGINIA

CITY           SKY/WX    TMP DP  RH WIND       PRES   REMARKS
STAUNTON*      CLEAR     28  15  60 NW5       30.03R
WAYNESBORO*    SUNNY     28  15  59 CALM      30.00R
HOT SPRINGS VA MOCLDY    19  10  68 W20G26    29.89R WCI   4
LYNCHBURG      PTCLDY    29  16  58 CALM      30.06R
DANVILLE       CLEAR     34  21  59 W6        30.08R
SOUTH BOSTON*  NOT AVBL
MARTINSVILLE   CLEAR     26  18  71 CALM      30.10R
ROANOKE        PTCLDY    32  16  51 W12       30.07R WCI  23
BLACKSBURG     PTCLDY    28  17  63 W10G16    30.05R WCI  18
DUBLIN*        CLEAR     29  17  60 NW13      30.04R WCI  19
MARION*        CLEAR     26  17  66 W21       30.05R WCI  12
HILLSVILLE*    CLEAR     24  17  72 W12       29.99R WCI  13
RICHLANDS*     FAIR      24  17  74 CALM      30.06R
WISE*          CLEAR     27  18  69 CALM      30.08R
ABINGDON*      CLEAR     27  19  73 W5        30.10R
$$

MDZ021>025-VAZ099-100-261200-
SOUTHERN MARYLAND AND THE DELMARVA PENINSULA

CITY           SKY/WX    TMP DP  RH WIND       PRES   REMARKS
PATUXENT RIVER CLEAR     38  23  55 NW20G28   30.00R
BAY BRIDGE APT CLOUDY    37  23  56 NW15      30.01R
LEONARDTOWN    CLEAR     36  21  55 NW8       30.03R
DOVER          MOCLDY    37  23  56 W20G25    29.95R
GEORGETOWN     CLEAR     38  23  55 NW8       29.97R
EASTON         CLOUDY    39  23  51 N13       30.02R
CAMBRIDGE      MOCLDY    37  21  52 NW13      30.01R
SALISBURY      CLEAR     38  24  57 W12       29.97R
OCEAN CITY     CLEAR     38  24  57 NW9       29.96R
WALLOPS ISLAND CLEAR     38  25  59 NW17      29.98R
ACCOMACK*      CLEAR     40  29  65 NW8       29.99R
$$

NCZ012>017-030>032-261200-
NORTH CENTRAL AND EASTERN NORTH CAROLINA

CITY           SKY/WX    TMP DP  RH WIND       PRES   REMARKS
ROANOKE RAPIDS FAIR      37  25  60 W5        30.05R
RALEIGH        CLEAR     38  18  44 NW5       30.08R
ELIZABETH CITY CLEAR     42  25  50 W12       30.01R
AHOSKIE*         N/A     39  23  53 CALM      30.05R
EDENTON*       CLEAR     45  26  47 NW6       30.03R
CURRITUCK*     CLEAR     44  27  51 W6        30.00R
KILL DEVIL HLS NOT AVBL
MANTEO         CLEAR     48  31  52 N7        30.00R
CAPE HATTERAS  CLEAR     52  31  44 NW9G21    29.98R
TARBORO*       NOT AVBL
GOLDSBORO      CLEAR     44  18  36 NW9       30.05R
WASHINGTON     CLEAR     42  23  46 NW6       30.04R
GREENVILLE     CLEAR     43  21  42 NW5       30.07R
NEW BERN       CLEAR     45  22  40 NW8       30.05R
WILMINGTON     CLEAR     44  22  41 NW8       30.06R
$$

VAZ048-261200-
ELSEWHERE

CITY           SKY/WX    TMP DP  RH WIND       PRES   REMARKS
HARRISBURG PA  CLOUDY    34  18  52 NW24G33   29.98R WCI  21
BALTIMORE      MOCLDY    36  19  50 NW15      30.00R
ANNAPOLIS      PTCLDY    39  21  48 NW14G25   30.00R
ANDREWS AFB    MOCLDY    35  17  47 W21       30.00R WCI  24
PHILADELPHIA   MOCLDY    38  20  48 NW16G26   29.95R
HENDERSON NC   CLEAR     32  18  55 CALM      30.06R
GREENSBORO     CLEAR     34  18  52 NW6       30.07R
ROCKY MOUNT    CLEAR     40  21  46 NW10      30.07R
$$

VAZ100-261200-
MARINE

STATION/POSITION TIME  TEMP    WIND        PRES    WAVE   SWELL
                       AIR SEA DIR/SP/G            HT/PER HT/PER
                 (UTC) (F)     (DEG/KT/KT) (MB)    (FT/S) (FT/S)
CAPE MAY NJ      1048   39 45  310/  9/ 19 1013.5R
LEWES DE         1048   40 45  320/ 21/ 26 1013.9R
OCEAN-CITY-INLET 1048   40 46  330/ 10/ 12 1014.7R
WACHAPREAGUE VA  1048   41 53  310/  3/  6 1015.0R
THOMAS POINT MD  1100   37 44  320/ 13/ 14   N/A
GOOSES REEF MD   1100   38 44  350/ 16/ 19 1016.9    2/ 3
COVE POINT MD    1048   37     330/ 14/ 18 1016.6R
SOLOMONS ISLAND  1048   38 45  320/ 10/ 15   N/A
BISHOPS HEAD MD  1048   38 50  330/ 12/ 17 1016.0R
PINEY POINT MD   1048          350/ 21/ 24   N/A
POTOMAC MD       1100   40 45  350/ 14/ 17 1015.4    2/ 3
CAMBRIDGE MD     1048   39 47  290/ 13/ 21 1014.9R
LEWISETTA VA     1048   40 50  350/ 13/ 20 1015.9R
RAPPAHANNOCK LGT 1048          340/ 19/ 21 1016.1R
YORK RVR RNG VA  1048   43     320/ 11/ 15 1015.4R
YORKTOWN VA      1048   43 50  320/ 12/ 14 1016.0R
JAMESTOWN VA     1100   42 53  330/  8/ 12   N/A     0
DOMINION TERM VA 1048   44     340/  8/ 15 1016.2R
KIPTOPEKE VA     1048      50  350/ 17/ 19   N/A
CHES BAY BRIDGE  1048   44 48  340/ 18/ 21 1015.8R
CAPE HENRY VA    1048   44     330/ 18/ 22   N/A
WILLOUBY STN VA  1048   43     330/ 13/ 15 1017.0R
S CRANEY ISL VA  1048   44     350/  7/ 13 1015.9R
CAPE HENRY BUOY  1042      49                N/A     5/11   2/11
OFFSHORE WE BUOY 1051      49                N/A     6/10   2/11
64NM E OF VA BCH 1050   47 51  340/ 17/ 21 1014.0R   7/10   3/10
DUCK PIER NC     1048   47 49   10/ 12/ 16 1015.0R
44100 DUCK FRF   1035      49                N/A     5/10   2/11
44056 DUCK FRF   1030      50                N/A     4/10   2/11
OREGON INLET NC  1042   48 60  330/  7/ 10 1015.1R
HATTERAS NC      1048   52 64  320/ 19/ 22 1014.9R
DIAMOND SHLS NC  1050   56 72  340/ 19/ 23 1014.6R   6/10   5/10
CAPE LOOKOUT NC  1000   54     340/ 16/ 21 1014.7R
$$




USA.gov is the U.S. government's official web portal to all federal, state and local government web resources and services.